Time,TemperatureF,DewpointF,PressureIn,WindDirection,WindDirectionDegrees,WindSpeedMPH,WindSpeedGustMPH,Humidity,HourlyPrecipIn,Conditions,Clouds,dailyrainin,SoftwareType,DateUTC
2013-01-17 00:03:00,19.4,15.8,30.52,NE,45,0.4,0.4,86,0.00,,,0.00,WUHU216HW,2013-01-17 08:03:00,
2013-01-17 00:08:00,19.4,15.8,30.52,NE,45,0.4,0.4,86,0.00,,,0.00,WUHU216HW,2013-01-17 08:08:00,
2013-01-17 00:28:00,19.6,16.0,30.52,NE,45,0.4,0.4,86,0.00,,,0.00,WUHU216HW,2013-01-17 08:28:00,
2013-01-17 00:33:00,19.6,16.0,30.52,NE,45,0.4,0.4,86,0.00,,,0.00,WUHU216HW,2013-01-17 08:33:00,
2013-01-17 00:58:00,19.8,16.5,30.52,NNW,338,0.0,0.0,87,0.00,,,0.00,WUHU216HW,2013-01-17 08:58:00,
2013-01-17 01:03:00,19.8,16.5,30.52,NNW,338,0.0,0.0,87,0.00,,,0.00,WUHU216HW,2013-01-17 09:03:00,
2013-01-17 01:08:00,19.8,16.5,30.52,NNW,338,0.0,0.0,87,0.00,,,0.00,WUHU216HW,2013-01-17 09:08:00,
2013-01-17 01:28:00,20.2,17.4,30.52,ENE,68,0.0,0.0,89,0.00,,,0.00,WUHU216HW,2013-01-17 09:28:00,
2013-01-17 01:33:00,20.2,17.4,30.52,ENE,68,0.0,0.0,89,0.00,,,0.00,WUHU216HW,2013-01-17 09:33:00,
2013-01-17 01:58:00,20.5,17.5,30.52,SSW,203,0.0,0.0,88,0.00,,,0.00,WUHU216HW,2013-01-17 09:58:00,
2013-01-17 02:03:00,20.5,17.5,30.52,SSW,203,0.0,0.0,88,0.00,,,0.00,WUHU216HW,2013-01-17 10:03:00,
2013-01-17 02:08:00,20.5,17.5,30.52,SSW,203,0.0,0.0,88,0.00,,,0.00,WUHU216HW,2013-01-17 10:08:00,
2013-01-17 02:28:00,20.7,17.4,30.52,NE,45,0.0,0.0,87,0.00,,,0.00,WUHU216HW,2013-01-17 10:28:00,
2013-01-17 02:33:00,20.7,17.4,30.52,NE,45,0.0,0.0,87,0.00,,,0.00,WUHU216HW,2013-01-17 10:33:00,
2013-01-17 02:58:00,20.9,17.6,30.52,NNE,23,0.0,0.0,87,0.00,,,0.00,WUHU216HW,2013-01-17 10:58:00,
2013-01-17 03:03:00,20.9,17.6,30.52,NNE,23,0.0,0.0,87,0.00,,,0.00,WUHU216HW,2013-01-17 11:03:00,
2013-01-17 03:08:00,20.9,17.6,30.52,NNE,23,0.0,0.0,87,0.00,,,0.00,WUHU216HW,2013-01-17 11:08:00,
2013-01-17 03:28:00,20.5,17.2,30.52,NE,45,0.4,0.4,87,0.00,,,0.00,WUHU216HW,2013-01-17 11:28:00,
2013-01-17 03:33:00,20.5,17.2,30.52,NE,45,0.4,0.4,87,0.00,,,0.00,WUHU216HW,2013-01-17 11:33:00,
2013-01-17 03:38:00,20.5,17.2,30.52,NE,45,0.4,0.4,87,0.00,,,0.00,WUHU216HW,2013-01-17 11:38:00,
2013-01-17 03:58:00,20.5,17.2,30.52,ENE,68,0.0,0.0,87,0.00,,,0.00,WUHU216HW,2013-01-17 11:58:00,
2013-01-17 04:03:00,20.5,17.2,30.52,ENE,68,0.0,0.0,87,0.00,,,0.00,WUHU216HW,2013-01-17 12:03:00,
2013-01-17 04:28:00,20.3,17.0,30.53,East,90,0.2,0.2,87,0.00,,,0.00,WUHU216HW,2013-01-17 12:28:00,
2013-01-17 04:33:00,20.3,17.0,30.53,East,90,0.2,0.2,87,0.00,,,0.00,WUHU216HW,2013-01-17 12:33:00,
2013-01-17 04:58:00,20.5,17.7,30.52,SSE,158,0.0,0.0,89,0.00,,,0.00,WUHU216HW,2013-01-17 12:58:00,
2013-01-17 05:03:00,20.5,17.7,30.52,SSE,158,0.0,0.0,89,0.00,,,0.00,WUHU216HW,2013-01-17 13:03:00,
2013-01-17 05:28:00,20.9,17.8,30.52,NE,45,0.0,0.0,88,0.00,,,0.00,WUHU216HW,2013-01-17 13:28:00,
2013-01-17 05:33:00,20.9,17.8,30.52,NE,45,0.0,0.0,88,0.00,,,0.00,WUHU216HW,2013-01-17 13:33:00,
2013-01-17 05:58:00,21.1,18.3,30.52,NE,45,0.9,0.9,89,0.00,,,0.00,WUHU216HW,2013-01-17 13:58:00,
2013-01-17 06:03:00,21.1,18.3,30.52,NE,45,0.9,0.9,89,0.00,,,0.00,WUHU216HW,2013-01-17 14:03:00,
2013-01-17 06:28:00,21.4,18.6,30.52,NE,45,0.0,0.0,89,0.00,,,0.00,WUHU216HW,2013-01-17 14:28:00,
2013-01-17 06:33:00,21.4,18.6,30.52,NE,45,0.0,0.0,89,0.00,,,0.00,WUHU216HW,2013-01-17 14:33:00,
2013-01-17 06:58:00,22.0,18.9,30.52,NE,45,1.1,1.1,88,0.00,,,0.00,WUHU216HW,2013-01-17 14:58:00,
2013-01-17 07:03:00,22.0,18.9,30.52,NE,45,1.1,1.1,88,0.00,,,0.00,WUHU216HW,2013-01-17 15:03:00,
2013-01-17 07:28:00,21.6,18.5,30.53,East,90,0.0,0.0,88,0.00,,,0.00,WUHU216HW,2013-01-17 15:28:00,
2013-01-17 07:33:00,21.6,18.5,30.53,East,90,0.0,0.0,88,0.00,,,0.00,WUHU216HW,2013-01-17 15:33:00,
2013-01-17 07:58:00,22.0,19.2,30.54,NE,45,0.0,0.0,89,0.00,,,0.00,WUHU216HW,2013-01-17 15:58:00,
2013-01-17 08:03:00,22.0,19.2,30.54,NE,45,0.0,0.0,89,0.00,,,0.00,WUHU216HW,2013-01-17 16:03:00,
2013-01-17 08:28:00,22.7,19.9,30.54,SSW,203,0.2,0.2,89,0.00,,,0.00,WUHU216HW,2013-01-17 16:28:00,
2013-01-17 08:33:00,22.7,19.9,30.54,SSW,203,0.2,0.2,89,0.00,,,0.00,WUHU216HW,2013-01-17 16:33:00,
2013-01-17 08:58:00,23.6,20.8,30.54,NW,315,0.4,0.4,89,0.00,,,0.00,WUHU216HW,2013-01-17 16:58:00,
2013-01-17 09:03:00,23.6,20.8,30.54,NW,315,0.4,0.4,89,0.00,,,0.00,WUHU216HW,2013-01-17 17:03:00,
2013-01-17 09:08:00,23.6,20.8,30.54,NW,315,0.4,0.4,89,0.00,,,0.00,WUHU216HW,2013-01-17 17:08:00,
2013-01-17 09:28:00,23.4,20.3,30.53,NNE,23,0.4,0.4,88,0.00,,,0.00,WUHU216HW,2013-01-17 17:28:00,
2013-01-17 09:33:00,23.4,20.3,30.53,NNE,23,0.4,0.4,88,0.00,,,0.00,WUHU216HW,2013-01-17 17:33:00,
2013-01-17 09:58:00,23.8,21.0,30.53,NW,315,0.9,0.9,89,0.00,,,0.00,WUHU216HW,2013-01-17 17:58:00,
2013-01-17 10:03:00,23.8,21.0,30.53,NW,315,0.9,0.9,89,0.00,,,0.00,WUHU216HW,2013-01-17 18:03:00,
2013-01-17 10:28:00,23.9,20.9,30.53,WSW,248,0.9,0.9,88,0.00,,,0.00,WUHU216HW,2013-01-17 18:28:00,
2013-01-17 10:33:00,23.9,20.9,30.53,WSW,248,0.9,0.9,88,0.00,,,0.00,WUHU216HW,2013-01-17 18:33:00,
2013-01-17 10:58:00,24.1,21.1,30.52,ENE,68,1.3,1.3,88,0.00,,,0.00,WUHU216HW,2013-01-17 18:58:00,
2013-01-17 11:03:00,24.1,21.1,30.52,East,90,0.7,1.3,88,0.00,,,0.00,WUHU216HW,2013-01-17 19:03:00,
2013-01-17 11:08:00,24.1,21.1,30.52,East,90,0.7,1.3,88,0.00,,,0.00,WUHU216HW,2013-01-17 19:08:00,
2013-01-17 11:28:00,24.5,21.4,30.50,NNW,338,0.0,0.0,88,0.00,,,0.00,WUHU216HW,2013-01-17 19:28:00,
2013-01-17 11:33:00,24.5,21.4,30.50,NNW,338,0.0,0.0,88,0.00,,,0.00,WUHU216HW,2013-01-17 19:33:00,
2013-01-17 11:58:00,24.8,21.8,30.50,WSW,248,0.0,0.0,88,0.00,,,0.00,WUHU216HW,2013-01-17 19:58:00,
2013-01-17 12:03:00,24.8,21.8,30.50,WSW,248,0.0,0.0,88,0.00,,,0.00,WUHU216HW,2013-01-17 20:03:00,
2013-01-17 12:08:00,24.8,21.8,30.50,WSW,248,0.0,0.0,88,0.00,,,0.00,WUHU216HW,2013-01-17 20:08:00,
2013-01-17 12:28:00,25.4,22.1,30.48,NE,45,2.0,2.0,87,0.00,,,0.00,WUHU216HW,2013-01-17 20:28:00,
2013-01-17 12:33:00,25.4,22.1,30.48,NE,45,2.0,2.0,87,0.00,,,0.00,WUHU216HW,2013-01-17 20:33:00,
2013-01-17 12:58:00,25.0,21.7,30.47,East,90,1.3,1.3,87,0.00,,,0.00,WUHU216HW,2013-01-17 20:58:00,
2013-01-17 13:03:00,25.0,21.7,30.47,East,90,1.3,1.3,87,0.00,,,0.00,WUHU216HW,2013-01-17 21:03:00,
2013-01-17 13:28:00,24.8,21.5,30.47,ENE,68,0.9,0.9,87,0.00,,,0.00,WUHU216HW,2013-01-17 21:28:00,
2013-01-17 13:33:00,24.8,21.5,30.47,ENE,68,0.9,0.9,87,0.00,,,0.00,WUHU216HW,2013-01-17 21:33:00,
2013-01-17 13:58:00,25.7,22.2,30.45,NE,45,1.8,1.8,86,0.00,,,0.00,WUHU216HW,2013-01-17 21:58:00,
2013-01-17 14:03:00,25.7,22.2,30.45,NE,45,1.8,1.8,86,0.00,,,0.00,WUHU216HW,2013-01-17 22:03:00,
2013-01-17 14:28:00,26.1,22.4,30.44,WSW,248,0.0,0.0,86,0.00,,,0.00,WUHU216HW,2013-01-17 22:28:00,
2013-01-17 14:33:00,26.1,22.4,30.44,WSW,248,0.0,0.0,86,0.00,,,0.00,WUHU216HW,2013-01-17 22:33:00,
2013-01-17 14:58:00,26.3,22.6,30.44,WSW,248,0.4,0.4,86,0.00,,,0.00,WUHU216HW,2013-01-17 22:58:00,
2013-01-17 15:03:00,26.3,22.6,30.44,WSW,248,0.4,0.4,86,0.00,,,0.00,WUHU216HW,2013-01-17 23:03:00,
2013-01-17 15:28:00,26.5,22.8,30.43,West,270,0.2,0.2,86,0.00,,,0.00,WUHU216HW,2013-01-17 23:28:00,
2013-01-17 15:33:00,26.5,22.8,30.43,West,270,0.2,0.2,86,0.00,,,0.00,WUHU216HW,2013-01-17 23:33:00,
2013-01-17 15:58:00,25.7,22.2,30.42,SW,225,1.3,1.3,86,0.00,,,0.00,WUHU216HW,2013-01-17 23:58:00,
2013-01-17 16:03:00,25.7,22.2,30.42,SW,225,1.3,1.3,86,0.00,,,0.00,WUHU216HW,2013-01-18 00:03:00,
2013-01-17 16:28:00,25.7,22.4,30.42,SSW,203,0.0,0.0,87,0.00,,,0.00,WUHU216HW,2013-01-18 00:28:00,
2013-01-17 16:33:00,25.7,22.4,30.42,SSW,203,0.0,0.0,87,0.00,,,0.00,WUHU216HW,2013-01-18 00:33:00,
2013-01-17 16:58:00,25.6,22.2,30.42,NW,315,0.4,0.4,87,0.00,,,0.00,WUHU216HW,2013-01-18 00:58:00,
2013-01-17 17:03:00,25.6,22.2,30.42,NW,315,0.4,0.4,87,0.00,,,0.00,WUHU216HW,2013-01-18 01:03:00,
2013-01-17 17:28:00,25.6,22.5,30.42,NE,45,0.2,0.2,88,0.00,,,0.00,WUHU216HW,2013-01-18 01:28:00,
2013-01-17 17:33:00,25.6,22.5,30.42,NE,45,0.2,0.2,88,0.00,,,0.00,WUHU216HW,2013-01-18 01:33:00,
2013-01-17 17:58:00,25.0,22.0,30.41,ENE,68,0.2,0.2,88,0.00,,,0.00,WUHU216HW,2013-01-18 01:58:00,
2013-01-17 18:03:00,25.0,22.0,30.41,ENE,68,0.2,0.2,88,0.00,,,0.00,WUHU216HW,2013-01-18 02:03:00,
2013-01-17 18:28:00,25.4,22.3,30.40,SSE,158,0.0,0.0,88,0.00,,,0.00,WUHU216HW,2013-01-18 02:28:00,
2013-01-17 18:33:00,25.4,22.3,30.40,SSE,158,0.0,0.0,88,0.00,,,0.00,WUHU216HW,2013-01-18 02:33:00,
2013-01-17 18:58:00,24.7,21.6,30.39,ESE,113,0.0,0.0,88,0.00,,,0.00,WUHU216HW,2013-01-18 02:58:00,
2013-01-17 19:03:00,24.7,21.6,30.39,ESE,113,0.0,0.0,88,0.00,,,0.00,WUHU216HW,2013-01-18 03:03:00,
2013-01-17 19:08:00,24.7,21.6,30.39,ESE,113,0.0,0.0,88,0.00,,,0.00,WUHU216HW,2013-01-18 03:08:00,
2013-01-17 19:28:00,24.3,21.2,30.38,ESE,113,0.0,0.0,88,0.00,,,0.00,WUHU216HW,2013-01-18 03:28:00,
2013-01-17 19:33:00,24.3,21.2,30.38,ESE,113,0.0,0.0,88,0.00,,,0.00,WUHU216HW,2013-01-18 03:33:00,
2013-01-17 19:58:00,24.7,21.6,30.38,NE,45,0.0,0.0,88,0.00,,,0.00,WUHU216HW,2013-01-18 03:58:00,
2013-01-17 20:03:00,24.7,21.6,30.38,NE,45,0.0,0.0,88,0.00,,,0.00,WUHU216HW,2013-01-18 04:03:00,
2013-01-17 20:08:00,24.7,21.6,30.38,NE,45,0.0,0.0,88,0.00,,,0.00,WUHU216HW,2013-01-18 04:08:00,
2013-01-17 20:28:00,24.1,21.1,30.39,NE,45,0.0,0.0,88,0.00,,,0.00,WUHU216HW,2013-01-18 04:28:00,
2013-01-17 20:33:00,24.1,21.1,30.39,NE,45,0.0,0.0,88,0.00,,,0.00,WUHU216HW,2013-01-18 04:33:00,
2013-01-17 20:58:00,24.1,21.1,30.38,NE,45,0.0,0.0,88,0.00,,,0.00,WUHU216HW,2013-01-18 04:58:00,
2013-01-17 21:00:00,24.1,21.1,30.38,NE,45,0.0,0.0,88,0.00,,,0.00,WUHU216HW,2013-01-18 05:00:00,
2013-01-17 21:01:00,24.1,21.1,30.38,NE,45,0.0,0.0,88,0.00,,,0.00,WUHU216HW,2013-01-18 05:01:00,
2013-01-17 21:03:00,24.1,21.1,30.38,NE,45,0.0,0.0,88,0.00,,,0.00,WUHU216HW,2013-01-18 05:03:00,
2013-01-17 21:28:00,24.5,21.4,30.38,SSW,203,1.1,1.1,88,0.00,,,0.00,WUHU216HW,2013-01-18 05:28:00,
2013-01-17 21:33:00,24.5,21.4,30.38,SSW,203,1.1,1.1,88,0.00,,,0.00,WUHU216HW,2013-01-18 05:33:00,
2013-01-17 21:58:00,24.1,21.1,30.37,SSW,203,0.0,0.0,88,0.00,,,0.00,WUHU216HW,2013-01-18 05:58:00,
2013-01-17 22:03:00,24.1,21.1,30.37,SSW,203,0.0,0.0,88,0.00,,,0.00,WUHU216HW,2013-01-18 06:03:00,
2013-01-17 22:08:00,24.1,21.1,30.37,SSW,203,0.0,0.0,88,0.00,,,0.00,WUHU216HW,2013-01-18 06:08:00,
2013-01-17 22:28:00,23.8,20.7,30.36,ESE,113,0.2,0.2,88,0.00,,,0.00,WUHU216HW,2013-01-18 06:28:00,
2013-01-17 22:33:00,23.8,20.7,30.36,ESE,113,0.2,0.2,88,0.00,,,0.00,WUHU216HW,2013-01-18 06:33:00,
2013-01-17 22:38:00,23.8,20.7,30.36,ESE,113,0.2,0.2,88,0.00,,,0.00,WUHU216HW,2013-01-18 06:38:00,
2013-01-17 22:58:00,23.6,20.5,30.36,NE,45,0.4,0.4,88,0.00,,,0.00,WUHU216HW,2013-01-18 06:58:00,
2013-01-17 23:03:00,23.6,20.5,30.36,NE,45,0.4,0.4,88,0.00,,,0.00,WUHU216HW,2013-01-18 07:03:00,
2013-01-17 23:28:00,23.4,20.3,30.36,NE,45,0.0,0.0,88,0.00,,,0.00,WUHU216HW,2013-01-18 07:28:00,
2013-01-17 23:33:00,23.4,20.3,30.36,NE,45,0.0,0.0,88,0.00,,,0.00,WUHU216HW,2013-01-18 07:33:00,
2013-01-17 23:58:00,22.9,19.5,30.35,ENE,68,0.0,0.0,87,0.00,,,0.00,WUHU216HW,2013-01-18 07:58:00,